Location: Brachbach
(49.1847°N, 9.7240°E)
Time: 00:27:46
(UTC+00:00)

NOAA 16 DEB - Visible Passes

Search period start: 12 October 2024 00:00
Search period end: 22 October 2024 00:00
Orbit: 815 x 852 km, 98.8° (Epoch: 11 October)

Date Brightness Start Highest point End Pass type
(mag) Time Alt. Az. Time Alt. Az. Time Alt. Az.
12 Oct ? 20:35:31 16° N 20:35:31 16° N 20:36:35 10° N visible
13 Oct ? 20:18:31 15° N 20:18:31 15° N 20:19:28 10° N visible
13 Oct ? 22:00:09 10° NNW 22:00:09 10° NNW 22:00:11 10° NNW visible
14 Oct ? 20:01:27 13° NNE 20:01:27 13° NNE 20:02:12 10° N visible
14 Oct ? 21:43:05 11° NNW 21:43:05 11° NNW 21:43:18 10° NNW visible
15 Oct ? 19:44:19 12° NNE 19:44:19 12° NNE 19:44:46 10° NNE visible
15 Oct ? 21:25:57 12° NNW 21:25:57 12° NNW 21:26:19 10° NNW visible
16 Oct ? 21:08:46 12° N 21:08:46 12° N 21:09:11 10° N visible
17 Oct ? 20:51:30 12° N 20:51:30 12° N 20:51:56 10° N visible
18 Oct ? 20:34:11 12° N 20:34:11 12° N 20:34:34 10° N visible
19 Oct ? 20:16:48 11° N 20:16:48 11° N 20:17:05 10° N visible
20 Oct ? 19:59:22 10° N 19:59:22 10° N 19:59:26 10° N visible
